| time (UTC) | temp F | wind direction | speed knots | gust knots | rain 1hr in | rain 24hr in | rain mn in | humidity % | barometer mb |
| 20260906060125 | 49 | 317 | 6.1 | 11.3 | 0.00 | 0.00 | 0.00 | 81 | 1006.3 |
| 20260906052455 | 47 | 313 | 5.2 | 9.6 | 0.00 | 0.00 | 0.00 | 87 | 1006.0 |
| 20260906042453 | 46 | 306 | 5.2 | 8.7 | 0.00 | 0.00 | 0.00 | 95 | 1005.6 |
| 20260906040455 | 46 | 298 | 4.3 | 7.0 | 0.00 | 0.00 | 0.00 | 95 | 1005.5 |
| 20260906034455 | 46 | 290 | 4.3 | 7.0 | 0.00 | 0.00 | 0.00 | 94 | 1005.4 |
| 20260906032455 | 46 | 301 | 5.2 | 7.8 | 0.00 | 0.00 | 0.00 | 89 | 1005.1 |
| 20260906030455 | 47 | 317 | 6.1 | 9.6 | 0.00 | 0.00 | 0.00 | 88 | 1005.0 |
| 20260906024455 | 47 | 314 | 4.3 | 7.0 | 0.00 | 0.00 | 0.00 | 86 | 1004.9 |
| 20260906022455 | 48 | 328 | 5.2 | 8.7 | 0.00 | 0.00 | 0.00 | 84 | 1004.6 |
| 20260906020455 | 49 | 336 | 7.8 | 11.3 | 0.00 | 0.00 | 0.00 | 83 | 1004.5 |
| 20260906014456 | 48 | 336 | 7.0 | 11.3 | 0.00 | 0.00 | 0.00 | 85 | 1004.1 |
| 20260906012125 | 49 | 350 | 8.7 | 15.6 | 0.00 | 0.00 | 0.00 | 81 | 1003.9 |
| 20260906010455 | 49 | 334 | 7.8 | 12.2 | 0.00 | 0.00 | 0.00 | 84 | 1003.7 |
| 20260906004456 | 49 | 337 | 7.0 | 16.5 | 0.00 | 0.00 | 0.00 | 84 | 1003.5 |
| 20260906002124 | 49 | 331 | 7.8 | 12.2 | 0.00 | 0.00 | 0.00 | 85 | 1003.1 |
| 20260906000124 | 49 | 328 | 7.0 | 11.3 | 0.00 | 0.00 | 0.00 | 86 | 1002.9 |
| 20260905234453 | 49 | 328 | 6.1 | 13.0 | 0.00 | 0.00 | 0.00 | 86 | 1002.8 |
| 20260905232453 | 49 | 324 | 6.1 | 10.4 | 0.00 | 0.00 | 0.00 | 86 | 1002.8 |
| 20260905230453 | 49 | 320 | 6.1 | 10.4 | 0.00 | 0.00 | 0.00 | 87 | 1002.6 |
| 20260905224453 | 48 | 320 | 5.2 | 9.6 | 0.00 | 0.00 | 0.00 | 87 | 1002.5 |
| 20260905220454 | 48 | 320 | 5.2 | 9.6 | 0.00 | 0.00 | 0.00 | 88 | 1002.2 |
| 20260905214454 | 49 | 325 | 6.1 | 10.4 | 0.00 | 0.00 | 0.00 | 85 | 1002.0 |
| 20260905212454 | 49 | 345 | 7.8 | 13.0 | 0.00 | 0.00 | 0.00 | 84 | 1001.9 |
| 20260905210454 | 49 | 333 | 7.0 | 11.3 | 0.00 | 0.00 | 0.00 | 87 | 1001.6 |
| 20260905204453 | 50 | 344 | 7.0 | 11.3 | 0.00 | 0.00 | 0.00 | 87 | 1001.3 |
| 20260905200455 | 51 | 345 | 7.0 | 14.8 | 0.00 | 0.00 | 0.00 | 86 | 1000.8 |
| 20260905192453 | 50 | 340 | 6.1 | 9.6 | 0.00 | 0.00 | 0.00 | 86 | 1000.6 |
| 20260905184454 | 51 | 334 | 6.1 | 10.4 | 0.00 | 0.00 | 0.00 | 85 | 1000.4 |
| 20260905182453 | 52 | 340 | 5.2 | 7.8 | 0.00 | 0.00 | 0.00 | 86 | 1000.2 |
| 20260905180451 | 52 | 344 | 4.3 | 7.8 | 0.00 | 0.00 | 0.00 | 83 | 1000.0 |
| 20260905174450 | 53 | 355 | 5.2 | 7.8 | 0.00 | 0.00 | 0.00 | 80 | 999.7 |
| 20260905172451 | 54 | 353 | 4.3 | 8.7 | 0.00 | 0.00 | 0.00 | 83 | 999.4 |
| 20260905170452 | 55 | 3 | 4.3 | 7.8 | 0.00 | 0.00 | 0.00 | 80 | 999.0 |
| 20260905164454 | 56 | 12 | 6.1 | 12.2 | 0.00 | 0.00 | 0.00 | 79 | 998.5 |
| 20260905162124 | 56 | 349 | 5.2 | 8.7 | 0.00 | 0.00 | 0.00 | 79 | 998.4 |
| 20260905160122 | 56 | 341 | 8.7 | 13.9 | 0.00 | 0.00 | 0.00 | 75 | 998.1 |
| 20260905154123 | 57 | 298 | 4.3 | 6.1 | 0.00 | 0.00 | 0.00 | 85 | 997.9 |
| 20260905150452 | 56 | 321 | 7.0 | 11.3 | 0.00 | 0.00 | 0.00 | 81 | 997.5 |
| 20260905144452 | 58 | 332 | 4.3 | 7.0 | 0.00 | 0.00 | 0.00 | 77 | 997.2 |
| 20260905142452 | 59 | 310 | 5.2 | 7.0 | 0.00 | 0.00 | 0.00 | 83 | 997.0 |
| 20260905140453 | 56 | 291 | 3.5 | 5.2 | 0.00 | 0.00 | 0.00 | 88 | 996.9 |
| 20260905134122 | 58 | 10 | 1.7 | 3.5 | 0.00 | 0.00 | 0.00 | 81 | 996.7 |
| 20260905132123 | 58 | 307 | 1.7 | 3.5 | 0.00 | 0.00 | 0.00 | 80 | 996.8 |
| 20260905130456 | 57 | 357 | 3.5 | 4.3 | 0.00 | 0.00 | 0.00 | 86 | 996.7 |
| 20260905124452 | 56 | 319 | 3.5 | 5.2 | 0.00 | 0.00 | 0.00 | 89 | 996.6 |
| 20260905122451 | 59 | 299 | 6.1 | 9.6 | 0.00 | 0.00 | 0.00 | 76 | 996.5 |
| 20260905114452 | 59 | 306 | 5.2 | 8.7 | 0.00 | 0.00 | 0.00 | 66 | 996.1 |
| 20260905112454 | 60 | 302 | 7.8 | 12.2 | 0.00 | 0.00 | 0.00 | 64 | 995.9 |
| 20260905110451 | 59 | 292 | 7.0 | 10.4 | 0.00 | 0.00 | 0.00 | 63 | 995.8 |
| 20260905104452 | 59 | 321 | 7.8 | 11.3 | 0.00 | 0.00 | 0.00 | 65 | 995.7 |
| 20260905102122 | 59 | 305 | 7.8 | 11.3 | 0.00 | 0.00 | 0.00 | 63 | 995.5 |
| 20260905100451 | 59 | 297 | 7.0 | 12.2 | 0.00 | 0.00 | 0.00 | 64 | 995.4 |
| 20260905092451 | 59 | 293 | 7.0 | 11.3 | 0.00 | 0.00 | 0.00 | 62 | 995.2 |
| 20260905090452 | 58 | 292 | 7.8 | 11.3 | 0.00 | 0.00 | 0.00 | 63 | 995.2 |
| 20260905084452 | 58 | 294 | 7.0 | 10.4 | 0.00 | 0.00 | 0.00 | 68 | 995.1 |
| 20260905082454 | 57 | 321 | 6.1 | 9.6 | 0.00 | 0.00 | 0.00 | 67 | 995.1 |
| 20260905080450 | 57 | 291 | 3.5 | 7.8 | 0.00 | 0.00 | 0.00 | 73 | 995.1 |
| 20260905074450 | 57 | 169 | 0.9 | 1.7 | 0.00 | 0.00 | 0.00 | 77 | 995.0 |
| 20260905072449 | 55 | 130 | 1.7 | 2.6 | 0.00 | 0.00 | 0.00 | 83 | 994.9 |
| 20260905064449 | 52 | 82 | 1.7 | 2.6 | 0.00 | 0.00 | 0.00 | 95 | 994.9 |